Location: Sunset Hills
(34.4956°N, 117.2223°W)
Time: 05:28:27
(UTC+00:00)

COSMOS 2428 - Pass Details

Date: 03 August 2024
Orbit: 842 x 857 km, 70.9° (Epoch: 09 September)

Event Time Altitude Azimuth Distance (km) Brightness Sun altitude
Exits shadow 12:05:32 14° 253° (WSW) 2,202 4.2 -11.2°
Maximum altitude 12:09:10 25° 301° (WNW) 1,656 4.0 -10.5°
Drops below altitude 10° 12:13:46 10° 355° (N) 2,476 5.5 -9.7°
Sets 12:16:42 0° 8° (N) 3,418 6.4 -9.2°
